Location: Newark
(59.4564°N, 26.6917°E)
Time: 22:05:00
(UTC+00:00)

Transit 2A Rocket - All Passes

Search period start: 11 November 2019 00:00
Search period end: 21 November 2019 00:00
Orbit: 594 x 909 km, 66.7° (Epoch: 10 November)

Date Brightness Start Highest point End Pass type
(mag) Time Alt. Az. Time Alt. Az. Time Alt. Az.
11 Nov - 01:40:00 10° WNW 01:44:03 33° N 01:48:02 10° ENE visible
11 Nov - 03:23:24 10° NW 03:27:30 37° NNE 03:31:33 10° E visible
11 Nov - 05:06:07 10° NW 05:10:28 89° NE 05:14:50 10° SE visible
11 Nov - 06:49:07 10° WNW 06:52:31 23° WSW 06:55:58 10° S daylight
11 Nov - 21:32:19 10° S 21:36:09 25° ESE 21:39:49 10° ENE night (unlit)
11 Nov - 23:13:41 10° SW 23:18:19 86° NW 23:22:42 10° NE visible
12 Nov - 00:57:07 10° W 01:01:18 37° NNW 01:05:21 10° NE visible
12 Nov - 02:40:43 10° WNW 02:44:44 33° N 02:48:42 10° ENE visible
12 Nov - 04:23:34 10° NW 04:27:54 66° NE 04:32:14 10° ESE visible
12 Nov - 06:06:19 10° WNW 06:10:13 34° SW 06:14:11 10° S daylight
12 Nov - 20:50:53 10° SSE 20:53:54 17° ESE 20:56:48 10° ENE night (unlit)
12 Nov - 22:31:11 10° SW 22:35:47 69° SE 22:40:08 10° NE night (unlit)
13 Nov - 00:14:15 10° W 00:18:34 43° NNW 00:22:44 10° NE visible
13 Nov - 01:57:58 10° WNW 02:01:58 32° N 02:05:52 10° ENE visible
13 Nov - 03:41:00 10° NW 03:45:15 51° NNE 03:49:30 10° ESE visible
13 Nov - 05:23:39 10° NW 05:27:50 50° SW 05:32:05 10° SSE daylight
13 Nov - 07:08:07 10° W 07:09:25 11° WSW 07:10:45 10° SW daylight
13 Nov - 20:10:26 10° SE 20:11:43 11° ESE 20:12:59 10° E night (unlit)
13 Nov - 21:48:53 10° SSW 21:53:19 47° SE 21:57:33 10° NE night (unlit)
13 Nov - 23:31:25 10° WSW 23:35:53 54° NNW 23:40:09 10° NE visible
14 Nov - 01:15:09 10° WNW 01:19:09 32° N 01:23:04 10° ENE visible
14 Nov - 02:58:24 10° NW 03:02:33 41° NNE 03:06:41 10° E visible
14 Nov - 04:41:03 10° NW 04:45:22 73° SW 04:49:46 10° SE visible
14 Nov - 06:24:23 10° WNW 06:27:15 18° WSW 06:30:10 10° SSW daylight
14 Nov - 21:06:49 10° S 21:10:57 32° ESE 21:14:53 10° ENE night (unlit)
14 Nov - 22:48:42 10° WSW 22:53:15 71° NW 22:57:37 10° NE night (unlit)
15 Nov - 00:32:17 10° WNW 00:36:23 34° N 00:40:21 10° NE visible
15 Nov - 02:15:46 10° NW 02:19:49 36° NNE 02:23:50 10° E visible
15 Nov - 03:58:30 10° NW 04:02:51 81° NE 04:07:14 10° SE visible
15 Nov - 05:41:24 10° WNW 05:45:00 26° WSW 05:48:40 10° S daylight
15 Nov - 20:25:04 10° SSE 20:28:38 22° ESE 20:32:03 10° ENE night (unlit)
15 Nov - 22:06:05 10° SW 22:10:41 86° SE 22:15:04 10° NE night (unlit)
15 Nov - 23:49:24 10° W 23:53:37 39° NNW 23:57:42 10° NE visible
16 Nov - 01:33:03 10° WNW 01:37:02 33° N 01:40:59 10° ENE visible
16 Nov - 03:15:57 10° NW 03:20:15 60° NNE 03:24:35 10° ESE visible
16 Nov - 04:58:38 10° WNW 05:02:40 39° SW 05:06:46 10° SSE visible
16 Nov - 19:43:52 10° SE 19:46:24 15° ESE 19:48:53 10° ENE night (unlit)
16 Nov - 21:23:39 10° SSW 21:28:11 61° SE 21:32:30 10° NE night (unlit)
16 Nov - 23:06:33 10° W 23:10:54 46° NNW 23:15:06 10° NE night (unlit)
17 Nov - 00:50:17 10° WNW 00:54:14 32° N 00:58:09 10° ENE visible
17 Nov - 02:33:22 10° NW 02:37:35 47° NNE 02:41:48 10° E visible
17 Nov - 04:16:01 10° NW 04:20:15 57° SW 04:24:35 10° SSE visible
17 Nov - 05:59:53 10° W 06:01:57 13° WSW 06:04:03 10° SW daylight
17 Nov - 20:41:26 10° SSW 20:45:46 41° SE 20:49:54 10° ENE night (unlit)
17 Nov - 22:23:45 10° WSW 22:28:14 59° NNW 22:32:32 10° NE night (unlit)
18 Nov - 00:07:27 10° WNW 00:11:27 33° N 00:15:23 10° ENE visible
18 Nov - 01:50:46 10° NW 01:54:53 39° NNE 01:58:58 10° E visible
18 Nov - 03:33:26 10° NW 03:37:46 82° SW 03:42:11 10° SE visible
18 Nov - 05:16:34 10° WNW 05:19:45 20° WSW 05:23:00 10° SSW visible
18 Nov - 19:59:28 10° S 20:03:25 28° ESE 20:07:10 10° ENE night (unlit)
18 Nov - 21:41:04 10° SW 21:45:37 78° NW 21:49:59 10° NE night (unlit)
18 Nov - 23:24:34 10° W 23:28:40 35° NNW 23:32:41 10° NE night (unlit)
19 Nov - 01:08:06 10° NW 01:12:07 34° NNE 01:16:07 10° ENE visible
19 Nov - 02:50:53 10° NW 02:55:13 73° NE 02:59:37 10° ESE visible
19 Nov - 04:33:41 10° WNW 04:37:28 30° WSW 04:41:19 10° S visible
19 Nov - 19:17:53 10° SSE 19:21:08 19° ESE 19:24:15 10° ENE night (unlit)
19 Nov - 20:58:31 10° SW 21:03:04 77° SE 21:07:27 10° NE night (unlit)
19 Nov - 22:41:42 10° W 22:45:56 41° NNW 22:50:03 10° NE night (unlit)
20 Nov - 00:25:23 10° WNW 00:29:20 32° N 00:33:15 10° ENE visible
20 Nov - 02:08:19 10° NW 02:12:36 55° NNE 02:16:54 10° ESE visible
20 Nov - 03:50:59 10° NW 03:55:06 44° SW 03:59:19 10° SSE visible
20 Nov - 18:37:00 10° SE 18:38:55 13° ESE 18:40:49 10° E night (unlit)
20 Nov - 20:16:09 10° SSW 20:20:36 53° SE 20:24:52 10° NE night (unlit)
20 Nov - 21:58:52 10° WSW 22:03:14 50° NNW 22:07:27 10° NE night (unlit)
20 Nov - 23:42:35 10° WNW 23:46:32 32° N 23:50:27 10° ENE night (unlit)
